Flag for U.S.A. Weather past 2 weeks in Baltimore, Maryland, U.S.A.

Now
61 °F

Passing clouds.


Feels Like: 61 °F
Forecast: 46 / 68 °F
Wind: 9 mph from Northwest

Location: Baltimore-Washington International Airport

Current Time: Apr 28, 2015 at 11:17:39 AM

Latest Report: Apr 28, 2015 at 10:54 AM


Visibility: 10 mi

Pressure: 29.89 "Hg

Humidity: 44%

Dew point: 39 °F

Location of BaltimoreLocation

Historic Weather in Baltimore — Graph

°F

Baltimore temperature yesterday

Maximum temperature yesterday: 58 °F (at 2:54 PM)
Minimum temperature yesterday: 39 °F (at 3:54 AM)
Average temperature yesterday: 51 °F

Past Weeks' High & Low Weather Summary

 TemperatureHumidityPressure
High79 °F (Apr 18, 3:54 PM)97% (Apr 20, 3:54 AM)30.43 "Hg (Apr 20, 3:54 AM)
Low35 °F (Apr 25, 2:54 AM)20% (Apr 15, 4:54 PM)29.52 "Hg (Apr 20, 7:54 PM)
Average56 °F56%29.94 "Hg
* Reported Apr 13 9:54 AM — Apr 28 9:54 AM, Baltimore, Weather by CustomWeather, © 2015

Note: Actual official high and low records may vary slightly from our data, if they occured in-between our weather recording intervals... More about our weather records

Advertising

Baltimore weather history for previous 24 hours

 ConditionsComfort  
Time TempWeatherWind HumidityBarometerVisibility
9:54 AM
Tue, Apr 28
58 °FPassing clouds.12 mph50%29.90 "Hg10 mi
8:54 AM54 °FPassing clouds.9 mph55%29.91 "Hg10 mi
7:54 AM52 °FScattered clouds.13 mph59%29.89 "Hg10 mi
6:54 AM47 °FPassing clouds.7 mph69%29.88 "Hg10 mi
5:54 AM47 °FPassing clouds.5 mph66%29.86 "Hg10 mi
4:54 AM48 °FPassing clouds.6 mph63%29.85 "Hg10 mi
3:54 AM48 °FPassing clouds.10 mph63%29.85 "Hg10 mi
2:54 AM48 °FPartly cloudy.10 mph63%29.86 "Hg10 mi
1:54 AM48 °FPassing clouds.10 mph68%29.87 "Hg10 mi
12:54 AM48 °FPassing clouds.9 mph66%29.88 "Hg10 mi
11:54 PM
Mon, Apr 27
48 °FPassing clouds.9 mph66%29.86 "Hg10 mi
10:54 PM48 °FPassing clouds.9 mph66%29.85 "Hg10 mi
9:54 PM49 °FPassing clouds.8 mph64%29.84 "Hg10 mi
8:54 PM52 °FBroken clouds.12 mph53%29.83 "Hg10 mi
7:54 PM54 °FBroken clouds.9 mph45%29.81 "Hg10 mi
6:54 PM55 °FBroken clouds.10 mph44%29.80 "Hg10 mi
5:54 PM56 °FBroken clouds.9 mph37%29.78 "Hg10 mi
4:54 PM57 °FCloudy.10 mph37%29.75 "Hg10 mi
3:54 PM56 °FBroken clouds.9 mph39%29.75 "Hg10 mi
2:54 PM58 °FBroken clouds.12 mph43%29.76 "Hg10 mi
1:54 PM54 °FMostly cloudy.13 mph47%29.78 "Hg10 mi
12:54 PM56 °FMostly cloudy.8 mph42%29.78 "Hg10 mi
11:54 AM57 °FBroken clouds.7 mph44%29.78 "Hg10 mi
Weather by CustomWeather, © 2015

See weather overviewHow to use our weather pages